GHO1 KVCV-YPPH

Flight info

Callsign GHO1
Flight time N/A
Altitude 34000
Route JUGLI J10 LAX C1316 DINTY R576 DUSAC/N0487F360 R576 OGG V15 MKK V8 ALANA V16 GECKO V4 BINJO DCT CHOKO B326 NIXEE/N0484F380 B326 NIXAM/N0482F400 B326 HN G342 CS J64 AS W408 AYE Q41 MALUP
Aircraft B77L/H-SDE1E2E3FGHIJ2J3J4J5M1RWXY/LB1D1

Departure

Time 2026-04-17 01:42
Airport Southern California Logistics Airport (KVCV)

Arrival

Time N/A
Airport Perth International Airport (YPPH)
Time Latitude Longitude Altitude Speed Heading
2026-04-17 01:14 34.58622 -117.37945 2870 ft 0 kts 50°
2026-04-17 01:31 34.58616 -117.37954 2870 ft 3 kts 50°
2026-04-17 01:31 34.58602 -117.37972 2869 ft 3 kts 50°
2026-04-17 01:32 34.58589 -117.37991 2869 ft 3 kts 50°
2026-04-17 01:32 34.58576 -117.38010 2869 ft 3 kts 50°
2026-04-17 01:32 34.58565 -117.38026 2868 ft 1 kts 50°
2026-04-17 01:32 34.58564 -117.38028 2868 ft 0 kts 50°
2026-04-17 01:34 34.58574 -117.38025 2869 ft 4 kts 12°
2026-04-17 01:34 34.58635 -117.38040 2869 ft 13 kts
2026-04-17 01:34 34.58719 -117.37958 2871 ft 16 kts 46°
2026-04-17 01:35 34.58798 -117.37859 2873 ft 16 kts 45°
2026-04-17 01:35 34.58876 -117.37760 2875 ft 16 kts 46°
2026-04-17 01:35 34.58945 -117.37741 2876 ft 10 kts 344°
2026-04-17 01:35 34.58998 -117.37799 2876 ft 11 kts 315°
2026-04-17 01:36 34.59050 -117.37863 2876 ft 11 kts 314°
2026-04-17 01:36 34.59101 -117.37928 2875 ft 11 kts 313°
2026-04-17 01:36 34.59153 -117.37993 2874 ft 11 kts 314°
2026-04-17 01:36 34.59205 -117.38057 2872 ft 11 kts 315°
2026-04-17 01:37 34.59269 -117.38135 2868 ft 17 kts 315°
2026-04-17 01:37 34.59376 -117.38264 2855 ft 24 kts 314°
2026-04-17 01:37 34.59500 -117.38393 2853 ft 24 kts 335°
2026-04-17 01:37 34.59665 -117.38409 2850 ft 24 kts
2026-04-17 01:38 34.59856 -117.38408 2848 ft 33 kts
2026-04-17 01:38 34.60131 -117.38411 2844 ft 46 kts 359°
2026-04-17 01:38 34.60486 -117.38415 2842 ft 56 kts 360°
2026-04-17 01:38 34.60865 -117.38418 2840 ft 53 kts 359°
2026-04-17 01:39 34.61200 -117.38422 2837 ft 43 kts 359°
2026-04-17 01:39 34.61479 -117.38425 2835 ft 32 kts 359°
2026-04-17 01:39 34.61589 -117.38454 2836 ft 12 kts 312°
2026-04-17 01:39 34.61600 -117.38555 2833 ft 12 kts 267°
2026-04-17 01:40 34.61595 -117.38660 2833 ft 12 kts 266°
2026-04-17 01:40 34.61580 -117.38675 2834 ft 2 kts 180°
2026-04-17 01:40 34.61568 -117.38674 2833 ft 1 kts 176°
2026-04-17 01:40 34.61488 -117.38671 2836 ft 30 kts 179°
2026-04-17 01:41 34.61060 -117.38667 2840 ft 92 kts 180°
2026-04-17 01:41 34.60229 -117.38662 2843 ft 145 kts 180°
2026-04-17 01:41 34.59073 -117.38650 2853 ft 185 kts 179°
2026-04-17 01:41 34.57739 -117.38656 3129 ft 189 kts 189°
2026-04-17 01:42 34.56517 -117.39253 3427 ft 191 kts 212°
2026-04-17 01:42 34.55357 -117.40076 3851 ft 197 kts 213°
2026-04-17 01:42 34.54212 -117.40930 4320 ft 193 kts 214°
2026-04-17 01:42 34.53085 -117.41777 4847 ft 189 kts 215°
2026-04-17 01:43 34.51910 -117.42658 4966 ft 207 kts 214°
2026-04-17 01:43 34.50631 -117.43606 5191 ft 222 kts 214°
2026-04-17 01:43 34.49284 -117.44613 5524 ft 234 kts 214°
2026-04-17 01:43 34.47856 -117.45678 5829 ft 248 kts 214°
2026-04-17 01:44 34.46356 -117.46755 6377 ft 251 kts 213°
2026-04-17 01:44 34.44817 -117.47834 6733 ft 262 kts 211°
2026-04-17 01:44 34.43210 -117.48978 7107 ft 273 kts 212°
2026-04-17 01:44 34.41557 -117.50154 7661 ft 277 kts 211°
2026-04-17 01:45 34.39874 -117.51303 8349 ft 278 kts 211°
2026-04-17 01:45 34.38181 -117.52445 9019 ft 280 kts 211°
2026-04-17 01:45 34.36479 -117.53604 9700 ft 281 kts 211°
2026-04-17 01:45 34.34770 -117.54777 10263 ft 286 kts 212°
2026-04-17 01:46 34.32981 -117.56011 10438 ft 307 kts 211°
2026-04-17 01:46 34.31073 -117.57331 10624 ft 326 kts 212°
2026-04-17 01:46 34.29042 -117.58747 10793 ft 348 kts 212°
2026-04-17 01:46 34.26891 -117.60246 11155 ft 363 kts 212°
2026-04-17 01:47 34.24683 -117.61783 11826 ft 370 kts 212°
2026-04-17 01:47 34.22448 -117.63337 12662 ft 373 kts 212°
2026-04-17 01:47 34.20189 -117.64910 13569 ft 376 kts 212°
2026-04-17 01:47 34.17905 -117.66490 14348 ft 380 kts 212°
2026-04-17 01:48 34.15599 -117.68089 15042 ft 385 kts 211°
2026-04-17 01:48 34.13262 -117.69710 15750 ft 389 kts 211°
2026-04-17 01:48 34.10903 -117.71345 16491 ft 393 kts 211°
2026-04-17 01:48 34.08526 -117.72993 17218 ft 396 kts 211°
2026-04-17 01:49 34.06126 -117.74655 17936 ft 400 kts 211°
2026-04-17 01:49 34.03702 -117.76333 18582 ft 402 kts 212°
2026-04-17 01:49 34.01479 -117.78353 18965 ft 404 kts 229°
2026-04-17 01:49 33.99942 -117.81195 19485 ft 407 kts 245°
2026-04-17 01:50 33.99066 -117.84435 20167 ft 407 kts 259°
2026-04-17 01:50 33.98690 -117.87823 20762 ft 410 kts 263°
2026-04-17 01:50 33.98384 -117.91265 21284 ft 415 kts 263°
2026-04-17 01:50 33.98087 -117.94738 21867 ft 418 kts 263°
2026-04-17 01:51 33.97780 -117.98233 22506 ft 421 kts 263°
2026-04-17 01:51 33.97457 -118.01750 23095 ft 424 kts 263°
2026-04-17 01:51 33.97118 -118.05292 23663 ft 428 kts 262°
2026-04-17 01:51 33.96772 -118.08821 24083 ft 432 kts 262°
2026-04-17 01:52 33.96411 -118.12436 24469 ft 438 kts 262°
2026-04-17 01:52 33.96041 -118.16136 24935 ft 441 kts 262°
2026-04-17 01:52 33.95678 -118.19756 25401 ft 444 kts 262°
2026-04-17 01:52 33.95303 -118.23477 25874 ft 447 kts 262°
2026-04-17 01:53 33.94926 -118.27211 26320 ft 451 kts 262°
2026-04-17 01:53 33.94550 -118.30928 26743 ft 454 kts 262°
2026-04-17 01:53 33.94164 -118.34722 27163 ft 458 kts 262°
2026-04-17 01:53 33.93762 -118.38538 27572 ft 462 kts 261°
2026-04-17 01:54 33.93370 -118.42348 27899 ft 467 kts 262°
2026-04-17 01:54 33.93010 -118.46243 28377 ft 468 kts 263°
2026-04-17 01:54 33.92687 -118.50150 28676 ft 472 kts 263°
2026-04-17 01:54 33.92347 -118.54102 29016 ft 476 kts 263°
2026-04-17 01:55 33.91994 -118.58079 29405 ft 478 kts 263°